Regional Weather Roundup
Issued by NWS Northern Indiana

Home | Current Version | Previous Version | Graphics & Text | Print | Product List | Glossary On
Versions: 1 2 3 4 5 6 7 8 9 10 11 12 13 14 15 16 17 18 19 20 21 22 23 24 25 26 27 28 29 30 31 32 33 34 35 36 37 38 39 40 41 42 43 44 45 46 47 48 49 50
000
ASUS43 KIWX 181900
RWRIWX

KIWX WEATHER ROUNDUP
NATIONAL WEATHER SERVICE NORTHERN INDIANA
300 PM EDT WED OCT 18 2017

NOTE: "FAIR" INDICATES FEW OR NO CLOUDS BELOW 12,000 FEET WITH NO
SIGNIFICANT WEATHER AND/OR OBSTRUCTIONS TO VISIBILITY.

* THESE STATIONS ARE NOT UNDER NWS QUALITY CONTROL. THEY ALSO MAY NOT
  REPORT WEATHER SUCH AS PRECIPITATION OR FOG.

INZ001>027-182000-
NORTHERN INDIANA

CITY           SKY/WX    TMP DP  RH WIND       PRES   REMARKS
GARY*          SUNNY     70  37  30 S12G25    30.11F
MICHIGAN CITY* SUNNY     68  41  37 S15G22    30.12F
SOUTH BEND     SUNNY     66  40  38 S18G25    30.14F
ELKHART*       SUNNY     66  39  37 SW14G21   30.15F
GOSHEN         SUNNY     67  38  34 S18G25    30.15F
MONTICELLO*    SUNNY     68  38  33 S12G20    30.16F
FORT WAYNE     MOSUNNY   67  41  38 S14G21    30.19F
PERU/GRISSOM   SUNNY     69  42  37 S14       30.17F

$$
INZ028>050-182000-
CENTRAL INDIANA

CITY           SKY/WX    TMP DP  RH WIND       PRES   REMARKS
LAFAYETTE      SUNNY     67  42  40 S12G20    30.16F
KOKOMO*        SUNNY     68  41  37 S16G22    30.19F
MUNCIE*        SUNNY     70  38  31 SW12      30.21F
INDIANAPOLIS   MOSUNNY   68  45  43 S12       30.21F

$$
MIZ043>046-050>051-056>058-064>065-071>073-077>080-182000-
SOUTHWEST LOWER MICHIGAN

CITY           SKY/WX    TMP DP  RH WIND       PRES   REMARKS
BATTLE CREEK   SUNNY     67  42  40 SW17G24   30.14F
BENTON HARBOR  SUNNY     68  40  35 S13G23    30.11F
COLDWATER*     SUNNY     68  36  31 SW15G21   30.15F
HILLSDALE*     SUNNY     66  37  34 S15G21    30.16F
HOLLAND        SUNNY     68  43  40 S18G24    30.10F
GRAND RAPIDS   SUNNY     69  42  37 SW15G23   30.10F
KALAMAZOO      SUNNY     68  40  35 S15       30.14F
STURGIS*       SUNNY     66  42  40 S12G22    30.15F
THREE RIVERS*  FAIR      68  42  39 S16       30.14F

$$
OHZ001>008-015>018-024>025-182000-
NORTHWEST OHIO

CITY           SKY/WX    TMP DP  RH WIND       PRES   REMARKS
DEFIANCE       SUNNY     68  40  35 SW12      30.19F
FINDLAY        SUNNY     70  40  33 S15G23    30.20F
TOLEDO EXPRESS SUNNY     70  42  36 SW15      30.18F
TOLEDO METCALF SUNNY     70  40  33 SW14G22   30.19F
LIMA           SUNNY     67  41  38 S13       30.21F

$$
AND FOR LAKE MICHIGAN COASTAL AND OPEN LAKE BUOY OBSERVATIONS

STATION/POSITION TEMP    WIND        PRES    VSBY  WAVE
                 AIR SEA DIR/SP/G                  HT/PER
                 (F)     (DEG/KT/KT) (MB)    (MI)  (FT/S)
CALUMET HARBOR    67     180/ 16/ 20 1018.5F
MICHIGAN CITY     65     160/ 17/ 22   N/A
BURNS HARBOR      67     190/ 20/ 24 1020.0F
SAINT JOSEPH      65     200/  8/ 15 1020.3
SOUTH LAKE BUOY   60 61  190/ 21/ 27 1018.6          6/ 6
4 MI NW BRIDGMAN  63 58  200/ 14/ 17 1019.9F         3/ 4
MICHIGAN CITY     64 58  200/ 16/ 19   N/A           2/ 3

$$
&&




USA.gov is the U.S. government's official web portal to all federal, state and local government web resources and services.